Weather Roundup
Issued by NWS Chicago, IL

Home | Current Version | Previous Version | Graphics & Text | Print | Product List | Glossary On
Versions: 1 2 3 4 5 6 7 8 9 10 11 12 13 14 15 16 17 18 19 20 21 22 23 24 25 26 27 28 29 30 31 32 33 34 35 36 37 38 39 40 41 42 43 44 45 46 47 48 49 50
000
NZUS59 KLOT 240658
HRRLOT

CHICAGO AREA WEATHER ROUNDUP
NATIONAL WEATHER SERVICE CHICAGO/ROMEOVILLE IL
100 AM CST WED JAN 24 2018

NOTE: "FAIR" INDICATES FEW OR NO CLOUDS BELOW 12,000 FEET WITH NO
SIGNIFICANT WEATHER AND/OR OBSTRUCTIONS TO VISIBILITY.

* THESE STATIONS ARE NOT UNDER NWS QUALITY CONTROL. THEY ALSO MAY NOT
  REPORT WEATHER SUCH AS PRECIPITATION OR FOG.

ILZ005-006-012>014-019>023-240800-
NORTHEAST ILLINOIS

CITY           SKY/WX    TMP DP  RH WIND       PRES   REMARKS
OHARE          CLOUDY    28  21  75 NW8       30.15S WCI  20
MIDWAY         CLOUDY    29  23  78 NW8       30.16S WCI  21
AURORA         CLOUDY    29  24  82 NW6       30.17R WCI  23
WAUKEGAN       NOT AVBL
DUPAGE AIRPORT CLOUDY    27  24  89 NW5       30.16R WCI  22
WHEELING       CLOUDY    28  22  78 NW5       30.17S WCI  23
NORTHERLY ISL    N/A     28  22  78 W6          N/A  WCI  22
$$

WIZ051-052-058>065-066-070>072-240800-
SOUTHEAST WISCONSIN

CITY           SKY/WX    TMP DP  RH WIND       PRES   REMARKS
MILWAUKEE      CLOUDY    28  23  81 NW6       30.14S WCI  22
KENOSHA*       CLOUDY    26  21  81 CALM      30.14F
RACINE*        CLOUDY    26  23  88 W6        30.15F WCI  19
$$

INZ001>003-010>013-019-020-240800-
NORTHWEST INDIANA

CITY           SKY/WX    TMP DP  RH WIND       PRES   REMARKS
GARY*          NOT AVBL
MICHIGAN CITY* NOT AVBL
RENSSELAER*    NOT AVBL
$$

LMZ740>746-240800-
SOUTHERN LAKE MICHIGAN

STATION/POSITION TIME  SKY/WX   TEMP WIND        PRES    VSBY
                                AIR  DIR/SP/G
                 (UTC)          (F)  (DEG/KT/KT) (MB)    (MI)
HARRISON CRIB    0630            29  330/ 11/ 12   N/A
BURNHAM HARBOR   0645            28  290/  9/ 10   N/A
CALUMET HARBOR   0630            28  270/  4/  7 1020.7F
BURNS HARBOR     0640            29  300/  9/ 12 1021.7S
MICHIGAN CITY    0630            29  270/ 13/ 15   N/A
$$

ABBREVIATIONS USED IN REMARKS
   TC - TEMPERATURE IN CELSIUS
  WCI - WIND CHILL INDEX
   HX - HEAT INDEX
  VSB - VISIBILITY
$$




USA.gov is the U.S. government's official web portal to all federal, state and local government web resources and services.